Lee's Summit, MO

11:04 AM CDT on September 24, 2017 (GMT -0500)
Lee's Summit Municipal

Weather History for KLXT - May, 2013

Change the Weather History Date:

Thursday, May 23, 2013

  Actual Average (KMKC) Record (KMKC)
Temperature  
Mean Temperature 59 °F -  
Max Temperature 68 °F 75 °F 91 °F (2012)
Min Temperature 52 °F 56 °F 48 °F (2001)
Degree Days  
Heating Degree Days 6    
Growing Degree Days 9 (Base 50)    
Moisture  
Dew Point 50 °F    
Average Humidity 71    
Maximum Humidity 83    
Minimum Humidity 61    
Precipitation  
Precipitation 0.00 in - - ()
Sea Level Pressure  
Sea Level Pressure 30.12 in    
Wind  
Wind Speed 7 mph (North)    
Max Wind Speed 15 mph    
Max Gust Speed 22 mph    
Visibility 10 miles    
Events      
Averages and records for this station are not official NWS values.
T = Trace of Precipitation, MM = Missing Value Source: NWS Daily Summary

Daily Weather History Graph

Daily Weather History Graph

Search for Another Location

Airport or City:

Trip Planner

Search our weather history database for the weather conditions in past years. The results will help you decide how hot, cold, wet, or windy it might be!

Date:

Astronomy

May. 23, 2013 Rise Set
Actual Time 5:58 AM CDT 8:30 PM CDT
Civil Twilight 5:27 AM CDT 9:01 PM CDT
Nautical Twilight 4:49 AM CDT 9:39 PM CDT
Astronomical Twilight 4:06 AM CDT 10:22 PM CDT
Moon 7:04 PM CDT (5/23) 4:43 AM CDT (5/23)
Length of Visible Light 15h 33m
Length of Day
14h 32m
Waxing Gibbous, 97% of the Moon is Illuminated
May 23
Waxing Gibbous
May 24
Full
May 31
Last Quarter
Jun 8
New
Jun 16
First Quarter

Hourly Weather History & Observations

Time (CDT) Temp. Dew Point Humidity Pressure Visibility Wind Dir Wind Speed Gust Speed Precip Events Conditions
12:53 AM 59.0 °F 48.0 °F 67% 29.95 in 10.0 mi NW 6.9 mph - N/A   Mostly Cloudy
1:53 AM 57.0 °F 48.0 °F 72% 29.96 in 10.0 mi WNW 3.5 mph - N/A   Scattered Clouds
2:53 AM 55.0 °F 48.0 °F 77% 29.97 in 10.0 mi WNW 3.5 mph - N/A   Partly Cloudy
3:53 AM 55.0 °F 48.0 °F 77% 29.99 in 10.0 mi NW 9.2 mph - N/A   Clear
4:53 AM 54.0 °F 46.9 °F 77% 30.00 in 10.0 mi NW 8.1 mph - N/A   Clear
5:53 AM 52.0 °F 46.9 °F 83% 30.04 in 10.0 mi WNW 5.8 mph - N/A   Clear
6:21 AM 53.6 °F 48.2 °F 82% 30.06 in 10.0 mi WNW 3.5 mph - N/A   Mostly Cloudy
6:53 AM 55.0 °F 48.0 °F 77% 30.07 in 10.0 mi West 4.6 mph - N/A   Overcast
7:53 AM 55.9 °F 48.0 °F 75% 30.09 in 10.0 mi West 6.9 mph - N/A   Mostly Cloudy
8:53 AM 57.9 °F 48.9 °F 72% 30.11 in 10.0 mi NNW 10.4 mph - N/A   Overcast
9:53 AM 60.1 °F 50.0 °F 69% 30.09 in 10.0 mi North 15.0 mph 21.9 mph N/A   Overcast
10:53 AM 62.1 °F 51.1 °F 67% 30.13 in 10.0 mi North 9.2 mph - N/A   Mostly Cloudy
11:26 AM 62.6 °F 51.8 °F 68% 30.15 in - North - - N/A   Unknown
11:53 AM - - N/A% 30.16 in - North - - N/A   Unknown
12:53 PM 64.9 °F 53.1 °F 65% 30.15 in - North - - N/A   Unknown
1:53 PM 64.9 °F 53.1 °F 65% 30.16 in 10.0 mi North 8.1 mph - N/A   Unknown
2:05 PM 64.4 °F 51.8 °F 64% 30.17 in 10.0 mi NW 5.8 mph - N/A   Overcast
2:30 PM 66.2 °F 53.6 °F 64% 30.18 in 10.0 mi NNE 6.9 mph - N/A   Overcast
2:53 PM 66.9 °F 53.1 °F 61% 30.17 in 10.0 mi NNE 8.1 mph - N/A   Overcast
3:53 PM 66.9 °F 53.1 °F 61% 30.17 in 10.0 mi North 10.4 mph - N/A   Overcast
4:53 PM 66.9 °F 54.0 °F 63% 30.16 in 10.0 mi North 10.4 mph - N/A   Overcast
5:53 PM 64.9 °F 53.1 °F 65% 30.18 in 10.0 mi NE 8.1 mph - N/A   Overcast
6:53 PM 64.0 °F 52.0 °F 65% 30.17 in 10.0 mi NE 10.4 mph - N/A   Overcast
7:53 PM 63.0 °F 51.1 °F 65% 30.18 in 10.0 mi NE 6.9 mph - N/A   Overcast
8:53 PM 60.1 °F 50.0 °F 69% 30.18 in 10.0 mi East 8.1 mph - N/A   Scattered Clouds
9:53 PM 57.0 °F 50.0 °F 77% 30.20 in 10.0 mi ENE 3.5 mph - N/A   Clear
10:53 PM 55.9 °F 50.0 °F 80% 30.22 in 10.0 mi ENE 4.6 mph - N/A   Clear
11:53 PM 55.0 °F 50.0 °F 83% 30.23 in 10.0 mi ENE 3.5 mph - N/A   Clear